Location: Balaclava NSW 2575, Australia
(34.4510°S, 150.4953°E)
Time: 07:56:45
(UTC+10:00)

ISS - Pass Details

Date: 22 May 2021
Orbit: 417 x 422 km, 51.6° (Epoch: 17 June)

Event Time Altitude Azimuth Distance (km) Brightness Sun altitude
Exits shadow 05:13:04 17° 342° (NNW) 1,169 -1.6 -19.7°
Maximum altitude 05:15:23 42° 47° (NE) 625 -2.5 -19.2°
Drops below altitude 10° 05:18:39 10° 119° (ESE) 1,526 -0.2 -18.5°
Sets 05:20:50 0° 126° (SE) 2,397 0.7 -18.1°
